Location: Byszew
(52.1813°N, 19.2693°E)
Time: 16:36:52
(UTC+00:00)

CZ-4 R/B - Pass Details

Date: 03 March 2021
Orbit: 532 x 597 km, 97.7° (Epoch: 17 April)

Event Time Altitude Azimuth Distance (km) Brightness Sun altitude
Rises 18:03:40 0° 196° (SSW) 2,672 4.9 -15.7°
Reaches altitude 10° 18:06:04 10° 210° (SSW) 1,792 4.2 -16.0°
Maximum altitude 18:09:15 24° 267° (W) 1,137 3.8 -16.5°
Drops below altitude 10° 18:12:31 10° 323° (NW) 1,826 4.7 -17.0°
Sets 18:14:59 0° 337° (NNW) 2,736 5.4 -17.4°
